Regional Weather Roundup
Issued by NWS

Home | Current Version | Previous Version | Text Only | Print | Product List | Glossary Off
Versions: 1 2 3 4 5 6 7 8 9 10 11 12 13 14 15 16 17 18 19 20 21 22 23 24 25 26 27 28 29 30 31 32 33 34 35 36 37 38 39 40 41 42 43 44 45 46 47 48 49 50

000
ASUS45 KBOU 181107
RWRCO

WEATHER ROUNDUP FOR COLORADO
NATIONAL WEATHER SERVICE DENVER/BOULDER CO
400 AM MST WED JAN 18 2017

NOTE: "FAIR" INDICATES FEW OR NO CLOUDS BELOW 12000 FEET WITH NO
SIGNIFICANT WEATHER AND/OR OBSTRUCTIONS TO VISIBILITY.

COZ001>005-013-030-031-181200-
...NORTHWEST COLORADO...

CITY           SKY/WX    TMP DP  RH WIND       PRES   REMARKS
CRAIG          CLOUDY     5   1  83 CALM      30.18F FOG
HAYDEN         CLOUDY    12   9  85 SE14      30.14F WCI  -3
MEEKER         FAIR      10   7  87 CALM      30.16F
MOUNT WERNER   NOT AVBL
STEAMBOAT SPGS MOCLDY     4   0  86 CALM      30.16S
WALDEN           N/A    N/A N/A N/A CALM      30.13F VSB 1/2
$$

COZ006>008-011-181200-
...WEST CENTRAL VALLEYS...

CITY           SKY/WX    TMP DP  RH WIND       PRES   REMARKS
GRAND JUNCTION CLOUDY    31  30  96 CALM      30.16F
MONTROSE       CLOUDY    33  30  88 CALM      30.18S
EAGLE          CLOUDY    19  16  88 CALM      30.21F
RIFLE          CLOUDY    27  23  85 NE5       30.18F WCI  22
DELTA          CLOUDY    35  31  85 CALM      30.17S
NUCLA          FAIR      27  23  86 SE5       30.19F WCI  21
$$

COZ017>023-064>068-181200-
...SOUTHWEST COLORADO...

CITY           SKY/WX    TMP DP  RH WIND       PRES   REMARKS
DURANGO        CLOUDY    30  28  92 W7        30.12F WCI  23
CORTEZ         FAIR      25  23  92 NE6       30.14F WCI  18
PAGOSA SPRINGS CLOUDY    32  30  92 CALM      30.12S
TELLURIDE      FAIR      16  13  88 SE5       30.16S WCI   9
WOLF CREEK PAS CLOUDY    16  16 100 SW12G18   30.14F WCI   3
$$

COZ009-010-012-014-032>034-037-058>063-181200-
...CENTRAL COLORADO...

CITY           SKY/WX    TMP DP  RH WIND       PRES   REMARKS
ASPEN          CLOUDY    16  10  77 S6        30.16R WCI   7
BUENA VISTA    FAIR       6   2  81 NW13      30.07S WCI -10
COPPER MTN     FAIR      23  -9  23 MISG      30.10S
BERTHOUD PASS  NOT AVBL
COTTONWOOD PAS FAIR      28  -4  24 W10       30.04F WCI  19
GUNNISON       CLOUDY    21  18  88 CALM      30.15S
KREMMLING      LGT SNOW  16  12  86 CALM      30.21S
LEADVILLE      FAIR       1  -4  79 N10       30.06F WCI -15
MONARCH PASS     N/A     12  10  92 MISG      30.17F
SALIDA         FAIR      19  10  69 NW13      30.14F WCI   5
SUNLIGHT       CLOUDY   N/A N/A N/A SW5       30.15F FOG
WILKERSON PASS FAIR      27 -26   9 N7        30.07F WCI  19
$$

COZ069>075-181200-
...SAN LUIS VALLEY/SANGRE DE CRISTO MOUNTAINS...

CITY           SKY/WX    TMP DP  RH WIND       PRES   REMARKS
ALAMOSA        CLOUDY    25  24  96 E3        30.10F
LA VETA PASS   NOT AVBL
SAGUACHE       CLOUDY    19  14  79 N6        30.12S WCI  11
$$

COZ035-036-038>040-181200-
...NORTHERN COLORADO FRONT RANGE...

CITY           SKY/WX    TMP DP  RH WIND       PRES   REMARKS
DENVER INTL AP FAIR      26  14  60 SW8       29.94F WCI  18
DMNS CITY PARK   N/A     24  14  66 SE10      29.94F WCI  13
AURORA         CLEAR     25  15  64 S8        29.94F WCI  16
FRONT RANGE AP FAIR      23  14  68 S6        29.94F WCI  16
ERIE MUNI ARPT FAIR      16  13  86 CALM      29.94F
BOULDER MUN AP FAIR      28  19  69 S3        29.93F
CENTENNIAL     FAIR      21  13  71 S6        29.94F WCI  13
BROOMFIELD     FAIR      30  10  43 CALM      29.94F
FORT COLLINS   FAIR      25  18  74 N8        29.94F WCI  16
LONGMONT       FAIR      18  13  80 CALM      29.96F
$$

COZ041-046-047-076>085-087-088-181200-
...PIKES PEAK/PALMER DIVIDE AND SOUTHERN FOOTHILLS...

CITY           SKY/WX    TMP DP  RH WIND       PRES   REMARKS
COLO. SPRINGS  FAIR      23  11  60 N5        29.96F WCI  17
A. F. ACADEMY  FAIR      21  12  68 N5        29.95F WCI  14
SCHRIEVER AFB  NOT AVBL
ELLICOTT       FAIR     N/A N/A N/A CALM      29.94F
FALCON         FAIR      22  14  72 W5        29.97S WCI  15
FORT CARSON    CLEAR     28  16  59 N3        29.97F
LIMON          FAIR      11   9  92 CALM      29.95F
MONUMENT HILL  FAIR      21   9  58 SW8       29.97F WCI  12
TRINIDAD       FAIR      30  23  75 SW14      29.98F WCI  19
$$

COZ042>045-048>051-090-091-181200-
...NORTHEAST COLORADO...

CITY           SKY/WX    TMP DP  RH WIND       PRES   REMARKS
GREELEY ARPT   FAIR      19  17  92 CALM      29.96F
AKRON          FAIR      23  15  71 W12       29.93F WCI  12
BURLINGTON     FAIR      27  24  89 W10       29.95F WCI  17
WRAY           FAIR      21  18  86 W5        29.96F WCI  15
STERLING       FAIR      18  16  93 SW7       29.95F WCI   8
HOLYOKE        FAIR      16  12  86 W10       29.94F WCI   3
FORT MORGAN    FAIR      17  15  91 W8        29.95F WCI   7
$$

COZ086-089-092>099-181200-
...SOUTHEAST COLORADO...

CITY           SKY/WX    TMP DP  RH WIND       PRES   REMARKS
PUEBLO         FOG       28  26  92 CALM      29.97F VSB 1/4
LA JUNTA       MOCLDY    20  16  84 W14       29.98F WCI   7
LAMAR          MOCLDY    19  17  92 W12       29.99F WCI   7
SPRINGFIELD      N/A     32  31  96 SW10      29.99F WCI  24
$$



USA.gov is the U.S. government's official web portal to all federal, state and local government web resources and services.